Date,TemperatureHighF,TemperatureAvgF,TemperatureLowF,DewpointHighF,DewpointAvgF,DewpointLowF,HumidityHigh,HumidityAvg,HumidityLow,PressureMaxIn,PressureMinIn,WindSpeedMaxMPH,WindSpeedAvgMPH,GustSpeedMaxMPH,PrecipitationSumIn
2013-2-1,40.3,26.5,20.4,31.5,11.5,4.2,90,53,39,30.34,29.77,16,4,28,0.00
2013-2-2,35.5,24.9,13.8,28.1,17.0,6.7,95,73,47,30.34,29.98,4,0,6,0.00
2013-2-3,40.5,34.2,28.2,28.4,24.3,19.5,95,67,58,29.98,29.82,16,3,34,0.00
2013-2-4,40.1,31.8,25.1,25.8,19.7,14.7,75,61,50,30.10,29.91,8,1,18,0.00
2013-2-5,50.9,42.3,30.7,37.0,32.2,24.3,83,68,53,29.95,29.86,11,1,18,0.00
2013-2-6,55.4,44.2,32.9,35.2,29.1,24.0,86,57,32,30.30,29.93,7,1,13,0.00
2013-2-7,39.2,35.6,31.2,32.8,30.3,25.7,96,81,73,30.37,30.10,3,0,6,0.00
2013-2-8,51.9,38.3,32.4,40.9,32.4,25.4,97,81,52,30.10,29.82,10,2,21,0.51
2013-2-9,51.2,37.5,27.5,25.4,19.1,14.0,77,49,25,30.35,30.05,12,2,21,0.00
2013-2-10,50.0,36.2,23.2,36.2,23.6,19.2,93,64,35,30.45,30.18,5,0,12,0.14
2013-2-11,61.7,47.2,37.3,51.5,39.0,27.5,98,77,38,30.19,29.86,18,3,32,0.05
2013-2-12,58.1,48.6,40.7,29.0,24.9,21.7,55,40,26,30.06,29.91,13,2,30,0.00
2013-2-13,44.4,42.3,39.3,42.4,35.7,26.6,96,78,51,29.94,29.61,6,0,14,0.07
2013-2-14,55.1,41.2,32.8,31.8,27.5,23.9,81,60,31,30.04,29.82,8,1,17,0.00
2013-2-15,58.9,41.2,28.0,41.0,31.5,25.8,94,72,37,30.07,29.90,10,1,17,0.02
2013-2-16,38.3,34.0,27.3,30.7,21.3,13.6,74,60,45,30.01,29.85,6,1,12,0.00
2013-2-17,30.7,24.5,19.4,17.6,8.1,2.2,84,50,34,30.21,29.90,12,3,21,0.00
2013-2-18,55.7,35.6,16.5,26.0,17.3,6.6,77,49,29,30.33,30.13,7,1,13,0.00
2013-2-19,53.7,44.5,38.1,41.4,28.4,14.1,91,55,30,30.13,29.78,18,3,32,0.04
2013-2-20,44.8,35.6,29.8,16.8,12.8,9.2,49,39,25,30.15,29.94,14,4,27,0.00
2013-2-21,52.4,37.6,26.4,23.8,16.4,12.2,59,43,25,30.27,30.10,7,1,16,0.00
2013-2-22,39.3,34.1,30.0,31.4,27.9,18.9,90,79,44,30.32,30.13,3,0,6,0.04
2013-2-23,55.1,40.6,33.1,44.7,36.8,31.1,95,87,67,30.14,29.81,2,0,4,0.02
2013-2-24,56.3,46.0,37.5,41.5,29.9,21.8,96,57,31,30.07,29.80,9,2,17,0.00
2013-2-25,43.5,34.2,26.7,27.0,23.6,21.4,85,66,48,30.19,30.07,3,0,6,0.00
2013-2-26,38.7,34.2,28.5,37.9,30.9,22.6,97,88,68,30.16,29.61,4,0,8,1.38
2013-2-27,49.9,43.6,38.0,40.3,34.8,32.3,98,72,55,29.76,29.58,13,2,20,0.00
2013-2-28,43.3,38.2,36.2,33.8,27.7,24.8,78,66,52,29.83,29.69,10,3,22,0.00